EW2244 Weather Reports


Display with metric or nautical units.
time (UTC)temp
F
wind
direction
speed
MPH
gust
MPH
rain 1hr
in
rain 24hr
in
rain mn
in
humidity
%
barometer
mb
20260507025138 51 36 0.0 4.0 0.00 7.80 0.57 93 1011.9
20260507024125 51 32 1.0 4.0 0.00 7.80 0.57 93 1011.9
20260507023119 51 27 1.0 5.0 0.00 7.80 0.57 94 1012.1
20260507022122 52 355 1.0 6.0 0.00 7.80 0.57 94 1012.0
20260507021131 52 33 1.0 4.0 0.04 7.80 0.57 94 1012.1
20260507020122 52 32 2.0 5.0 0.12 7.80 0.57 93 1012.0
20260507015130 52 77 1.0 5.0 0.16 7.80 0.57 93 1011.9
20260507014135 52 132 1.0 5.0 0.16 7.80 0.57 94 1011.9
20260507013120 52 34 0.0 3.0 0.16 7.80 0.57 94 1012.0
20260507012130 52 39 1.0 5.0 0.16 7.80 0.57 94 1011.9
20260507011159 52 82 0.0 5.0 0.12 7.76 0.56 93 1011.8
20260507010124 52 338 1.0 2.0 0.04 7.68 0.54 94 1011.7
20260507005133 52 339 1.0 4.0 0.00 7.64 0.53 94 1011.7
20260507004125 52 5 1.0 4.0 0.00 7.64 0.53 94 1011.8
20260507003131 52 28 1.0 3.0 0.00 7.64 0.53 94 1011.8
20260507002156 52 33 1.0 8.0 0.00 7.64 0.53 93 1011.8
20260507001141 52 51 1.0 2.0 0.00 7.64 0.53 94 1011.8
20260507000127 52 355 0.0 5.0 0.04 7.64 0.53 94 1011.7
20260506235138 52 221 0.0 5.0 0.20 7.64 0.53 94 1011.7
20260506234125 52 132 1.0 3.0 0.43 7.64 0.53 94 1011.8
20260506233151 52 351 2.0 6.0 0.71 7.64 0.53 94 1011.8
20260506232137 52 9 1.0 4.0 0.83 7.64 0.53 94 1011.7
20260506231129 52 159 0.0 1.0 1.30 7.64 0.53 95 1011.7
20260506230138 52 159 0.0 1.0 1.97 7.60 0.52 95 1011.7
20260506225145 52 159 0.0 3.0 1.85 7.40 0.47 94 1011.8
20260506224133 52 155 0.0 0.0 1.69 7.20 0.42 94 1011.7
20260506223124 53 155 0.0 1.0 1.46 6.93 0.35 94 1011.7
20260506222129 53 155 0.0 2.0 1.34 6.77 0.31 94 1011.6
20260506221157 53 157 0.0 2.0 1.18 6.34 0.20 94 1011.7
20260506220122 53 154 1.0 5.0 1.06 5.59 0.01 94 1011.4
20260506215134 53 26 0.0 6.0 1.02 5.55 1.41 94 1011.3
20260506214139 53 5 2.0 4.0 0.98 5.51 1.40 94 1011.3
20260506213124 52 19 0.0 4.0 0.94 5.47 1.39 94 1011.2
20260506212125 52 19 1.0 4.0 0.91 5.43 1.38 93 1011.2
20260506211135 53 33 1.0 5.0 0.55 5.08 1.29 90 1011.4
20260506210120 53 169 0.0 3.0 0.00 4.53 1.15 91 1011.2
20260506205127 53 170 0.0 3.0 0.04 4.53 1.15 91 1011.2
20260506204132 53 19 1.0 4.0 0.28 4.53 1.15 91 1011.1
20260506203123 54 288 0.0 2.0 0.39 4.53 1.15 90 1011.0
20260506202127 54 290 1.0 4.0 0.39 4.53 1.15 90 1011.0
20260506201130 53 310 0.0 2.0 0.39 4.53 1.15 91 1010.9
20260506200136 54 311 1.0 3.0 0.39 4.53 1.15 91 1010.9
20260506195129 54 26 0.0 2.0 0.35 4.49 1.14 90 1010.7
20260506194134 54 26 0.0 1.0 0.12 4.25 1.08 89 1010.6
20260506193141 54 26 0.0 2.0 0.00 4.13 1.05 88 1010.5
20260506192125 54 26 1.0 3.0 0.00 4.13 1.05 87 1010.2
20260506191125 55 26 2.0 9.0 0.00 4.13 1.05 85 1010.1
20260506190130 55 22 2.0 7.0 0.00 4.13 1.05 85 1009.8
20260506185132 55 355 0.0 5.0 0.00 4.13 1.05 84 1009.7
20260506184131 56 43 0.0 5.0 0.00 4.13 1.05 81 1009.4
20260506183120 56 30 2.0 11.0 0.00 4.13 1.05 80 1009.0
20260506182124 56 355 2.0 9.0 0.00 4.13 1.05 80 1008.9
20260506181129 56 90 1.0 5.0 0.00 4.13 1.05 79 1009.0
20260506180133 56 27 0.0 4.0 0.00 4.13 1.05 81 1009.0
20260506175142 56 25 1.0 2.0 0.00 4.17 1.05 80 1008.5
20260506174126 57 25 1.0 5.0 0.00 4.17 1.05 78 1008.4
20260506173134 57 348 1.0 4.0 0.00 4.17 1.05 75 1008.4
20260506172139 58 355 0.0 5.0 0.00 4.17 1.05 75 1008.4
20260506171144 59 44 2.0 6.0 0.00 4.17 1.05 72 1008.4
20260506170132 60 37 1.0 3.0 0.00 4.17 1.05 70 1008.3
20260506165137 61 18 0.0 3.0 0.00 4.17 1.05 71 1008.1
20260506164142 61 11 2.0 4.0 0.00 4.17 1.05 69 1008.0
20260506163126 61 82 1.0 4.0 0.00 4.17 1.05 72 1007.8
20260506162137 59 74 0.0 4.0 0.00 4.17 1.05 72 1007.9
20260506161121 59 360 2.0 6.0 0.00 4.17 1.05 71 1007.7
20260506160127 58 19 2.0 11.0 0.00 4.17 1.05 74 1007.4
20260506155132 57 44 4.0 9.0 0.00 4.17 1.05 73 1007.3
20260506154121 57 55 2.0 8.0 0.00 4.17 1.05 73 1007.6
20260506153127 57 32 3.0 10.0 0.00 4.17 1.05 73 1007.7
20260506152152 58 139 4.0 10.0 0.00 4.17 1.05 72 1007.7
20260506151137 59 44 3.0 6.0 0.00 4.17 1.05 72 1007.8
20260506150126 60 53 2.0 8.0 0.00 4.17 1.05 69 1007.8
20260506145129 62 317 3.0 10.0 0.00 4.17 1.05 71 1007.9
20260506144134 62 36 2.0 5.0 0.00 4.17 1.05 74 1007.8
20260506143139 61 36 2.0 10.0 0.00 4.17 1.05 72 1007.9
20260506142127 62 23 2.0 6.0 0.00 4.17 1.05 74 1007.7
20260506141133 61 44 3.0 8.0 0.00 4.17 1.05 75 1007.6
20260506140159 61 22 2.0 6.0 0.00 4.17 1.05 78 1007.8
20260506135123 61 348 1.0 6.0 0.00 4.21 1.05 78 1008.0
20260506134132 61 13 2.0 6.0 0.00 4.21 1.05 76 1008.1
20260506133159 60 29 2.0 6.0 0.00 4.21 1.05 81 1008.1
20260506132201 59 28 1.0 5.0 0.00 4.21 1.05 83 1008.2
20260506131126 59 338 2.0 10.0 0.00 4.21 1.05 81 1008.3
20260506130130 60 53 4.0 9.0 0.00 4.21 1.05 80 1008.3
20260506125140 59 42 2.0 7.0 0.00 4.21 1.05 83 1008.3
20260506124126 58 48 3.0 7.0 0.00 4.21 1.05 85 1008.2
20260506123132 58 80 3.0 9.0 0.00 4.21 1.05 87 1008.1
20260506122138 57 64 4.0 10.0 0.00 4.21 1.05 91 1008.0
20260506121147 56 30 4.0 9.0 0.12 4.21 1.05 91 1008.1
20260506120133 55 22 3.0 11.0 1.93 4.21 1.05 93 1008.1
20260506115139 54 59 3.0 6.0 2.83 4.25 1.05 97 1008.1
20260506114125 51 9 2.0 8.0 2.99 4.25 1.05 96 1008.1
20260506113137 50 40 0.0 6.0 2.99 4.25 1.05 94 1008.3
20260506112123 51 62 2.0 6.0 2.95 4.21 1.04 93 1008.2
20260506111128 52 48 1.0 15.0 3.03 4.13 1.02 90 1007.8
20260506110141 55 252 2.0 11.0 1.38 2.32 0.56 90 1008.2
20260506105146 56 258 1.0 4.0 0.35 1.34 0.30 95 1007.8
20260506104135 56 63 1.0 8.0 0.31 1.30 0.29 94 1007.5
20260506103200 56 161 1.0 8.0 0.31 1.30 0.29 95 1007.7
20260506102124 56 87 2.0 5.0 0.31 1.30 0.29 95 1007.8
20260506101128 56 137 1.0 8.0 0.12 1.10 0.24 94 1007.8
20260506100158 56 63 2.0 8.0 0.00 0.98 0.21 94 1007.7
20260506095141 56 51 4.0 9.0 0.00 1.10 0.21 94 1007.8
20260506094126 56 119 3.0 8.0 0.00 1.10 0.21 96 1007.8
20260506093153 56 92 4.0 10.0 0.00 1.10 0.21 95 1007.6
20260506092139 55 81 3.0 9.0 0.00 1.10 0.21 96 1007.6
20260506091127 55 146 3.0 10.0 0.00 1.10 0.21 96 1007.5
20260506090133 55 13 3.0 7.0 0.00 1.10 0.21 96 1007.5
20260506085158 55 86 3.0 12.0 0.04 1.30 0.21 95 1007.6
20260506084124 55 86 4.0 12.0 0.08 1.30 0.21 95 1007.6
20260506083134 55 9 4.0 12.0 0.12 1.30 0.21 96 1007.8
20260506082140 55 148 1.0 8.0 0.16 1.30 0.21 96 1007.8
20260506081127 55 140 0.0 6.0 0.16 1.30 0.21 96 1007.9
20260506080135 55 141 0.0 7.0 0.16 1.30 0.21 96 1008.0
20260506073134 55 127 1.0 4.0 0.04 1.46 0.18 96 1008.3
20260506072139 55 126 0.0 2.0 0.00 1.42 0.17 96 1008.3
20260506071128 55 213 0.0 2.0 0.00 1.42 0.17 96 1008.3
20260506070132 54 147 0.0 4.0 0.00 1.42 0.17 97 1008.6
20260506062155 54 82 1.0 3.0 0.04 2.13 0.17 97 1008.5
20260506061138 53 95 0.0 1.0 0.12 2.13 0.17 97 1008.5
20260506060138 53 5 0.0 1.0 0.20 2.13 0.17 96 1008.4
20260506051124 53 5 0.0 1.0 0.28 2.52 0.13 96 1008.7
20260506050134 53 5 0.0 1.0 0.24 2.48 0.12 96 1008.6
20260506045121 53 5 0.0 1.0 0.16 2.68 0.10 96 1008.8
20260506044127 53 5 0.0 1.0 0.16 2.68 0.10 96 1008.8
20260506043133 53 5 0.0 0.0 0.16 2.68 0.10 96 1009.0
20260506042124 53 5 0.0 0.0 0.08 2.60 0.08 96 1009.2
20260506041130 53 5 0.0 1.0 0.00 2.52 0.06 96 1009.3
20260506040135 53 5 0.0 1.0 0.04 2.52 0.06 96 1009.3
20260506035126 53 5 0.0 1.0 0.20 2.60 0.06 96 1009.2
20260506034133 53 5 0.0 1.0 0.24 2.60 0.06 96 1009.5
20260506033120 53 5 0.0 2.0 0.24 2.60 0.06 96 1009.4
20260506032147 53 5 0.0 3.0 0.24 2.60 0.06 96 1009.5
20260506031132 53 5 0.0 2.0 0.24 2.60 0.06 96 1009.6
20260506030123 53 5 0.0 0.0 0.20 2.56 0.05 96 1009.8